OTTER BROOK LAKE : From 01/10/2019 02:00 to 01/24/2019 10:00

Date STAGE [FT] FLOW [CFS] LAKE ELEVATION [FT] PRECIPITATION INCREMENT [IN] AIR TEMPERATURE [DEGF]
01/23/2019 23:00 -- -- -- 0.01 --
01/23/2019 22:00 -- -- 23.32 0.01 35.1
01/23/2019 21:00 -- -- 23.31 0.03 36.8
01/23/2019 20:00 -- -- 23.30 0.04 35.1
01/23/2019 19:00 -- -- 23.29 0.01 35.2
01/23/2019 18:00 -- -- 23.28 0.01 35.6
01/23/2019 17:00 -- -- 23.28 0.00 35.2
01/23/2019 16:00 -- -- 23.27 0.01 34.5
01/23/2019 15:00 -- -- 23.26 0.00 35.2
01/23/2019 14:00 -- -- 23.26 0.00 36.8
01/23/2019 13:00 -- -- 23.25 0.00 37.0
01/23/2019 12:00 -- -- 23.24 0.00 36.9
01/23/2019 11:00 -- -- 23.24 0.00 36.6
01/23/2019 10:00 -- -- 23.24 0.00 36.6
01/23/2019 09:00 -- -- 23.23 0.00 36.0
01/23/2019 08:00 -- -- 23.21 0.00 34.5
01/23/2019 07:00 -- -- 23.22 0.00 32.5
01/23/2019 06:00 -- -- 23.22 0.00 30.4
01/23/2019 05:00 -- -- 23.21 0.00 27.9
01/23/2019 04:00 -- -- 23.21 0.00 26.0
01/23/2019 03:00 -- -- 23.21 0.00 24.0
01/23/2019 02:00 -- -- 23.21 0.00 23.2
01/23/2019 01:00 -- -- 23.20 0.00 20.4
01/23/2019 00:00 -- -- 23.20 0.00 17.1
01/22/2019 23:00 -- -- 23.20 0.00 15.1
01/22/2019 22:00 -- -- 23.20 0.00 13.0
01/22/2019 21:00 -- -- 23.20 0.00 12.7
01/22/2019 20:00 -- -- 23.19 0.00 13.4
01/22/2019 19:00 -- -- 23.19 0.00 13.7
01/22/2019 18:00 -- -- 23.19 0.00 13.6
01/22/2019 17:00 -- -- 23.18 0.00 14.2
01/22/2019 16:00 -- -- 23.18 0.00 14.6
01/22/2019 15:00 -- -- 23.17 0.00 14.9
01/22/2019 14:00 -- -- 23.17 0.00 14.3
01/22/2019 13:00 -- -- 23.17 0.00 14.3
01/22/2019 12:00 -- -- 23.16 0.00 17.8
01/22/2019 11:00 -- -- 23.15 0.49 23.2
01/22/2019 10:00 -- -- 23.15 0.00 25.0
01/22/2019 09:00 -- -- 23.15 0.00 25.0
01/22/2019 08:00 -- -- 23.14 0.00 24.4
01/22/2019 07:00 -- -- 23.15 0.00 21.8
01/22/2019 06:00 -- -- 23.16 0.00 18.3
01/22/2019 05:00 -- -- 23.16 0.00 11.9
01/22/2019 04:00 -- -- 23.16 0.46 1.8
01/22/2019 03:00 -- -- 23.15 0.00 1.7
01/22/2019 02:00 -- -- 23.16 0.00 1.6
01/22/2019 01:00 -- -- 23.15 0.00 1.4
01/22/2019 00:00 -- -- 23.15 0.00 1.3
01/21/2019 23:00 -- -- 23.15 0.00 1.2
01/21/2019 22:00 -- -- 23.15 0.00 1.0
01/21/2019 21:00 -- -- 23.15 0.00 1.5
01/21/2019 20:00 -- -- 23.14 0.00 1.5
01/21/2019 19:00 -- -- 23.15 0.00 0.8
01/21/2019 18:00 -- -- 23.15 0.00 0.6
01/21/2019 17:00 -- -- 23.15 0.00 0.8
01/21/2019 16:00 -- -- 23.14 0.00 1.9
01/21/2019 15:00 -- -- 23.12 0.00 1.3
01/21/2019 14:00 -- -- 23.15 0.00 1.5
01/21/2019 13:00 -- -- 23.13 0.00 1.2
01/21/2019 12:00 -- -- 23.14 0.00 0.9
01/21/2019 11:00 -- -- 23.12 0.00 1.3
01/21/2019 10:00 -- -- 23.15 0.00 1.1
01/21/2019 09:00 -- -- 23.14 0.00 0.3
01/21/2019 08:00 -- -- 23.14 0.00 1.4
01/21/2019 07:00 -- -- 23.10 0.00 0.8
01/21/2019 06:00 -- -- 23.12 0.00 0.7
01/21/2019 05:00 -- -- 23.12 0.00 0.6
01/21/2019 04:00 -- -- 23.13 0.00 0.5
01/21/2019 03:00 -- -- 23.13 0.00 0.5
01/21/2019 02:00 -- -- 23.13 0.00 0.4
01/21/2019 01:00 -- -- 23.12 0.00 0.3
01/21/2019 00:00 -- -- 23.13 0.00 0.2
01/20/2019 23:00 -- -- 23.15 0.00 0.1
01/20/2019 22:00 -- -- 23.15 0.00 0.5
01/20/2019 21:00 -- -- 23.14 0.00 0.5
01/20/2019 20:00 -- -- 23.13 0.00 1.1
01/20/2019 19:00 -- -- 23.14 0.00 1.4
01/20/2019 18:00 -- -- 23.13 0.00 1.4
01/20/2019 17:00 -- -- 23.13 0.00 2.4
01/20/2019 16:00 -- -- 23.13 0.00 3.9
01/20/2019 15:00 -- -- 23.13 0.00 6.5
01/20/2019 14:00 -- -- 23.12 0.00 12.0
01/20/2019 13:00 -- -- 23.12 0.00 15.3
01/20/2019 12:00 -- -- 23.12 0.01 18.8
01/20/2019 11:00 -- -- 23.12 0.02 21.0
01/20/2019 10:00 -- -- 23.12 0.01 20.9
01/20/2019 09:00 -- -- 23.12 0.01 19.4
01/20/2019 08:00 -- -- 23.11 0.03 18.7
01/20/2019 07:00 -- -- 23.10 0.02 17.9
01/20/2019 06:00 -- -- 23.10 0.04 16.7
01/20/2019 05:00 -- -- 23.09 0.01 16.8
01/20/2019 04:00 -- -- 23.08 0.00 17.2
01/20/2019 03:00 -- -- 23.09 0.00 16.5
01/20/2019 02:00 -- -- 23.07 0.02 16.3
01/20/2019 01:00 -- -- 23.08 0.01 16.4
01/20/2019 00:00 -- -- 23.06 0.02 17.0
01/19/2019 23:00 -- -- 23.06 0.02 17.8
01/19/2019 22:00 -- -- 23.04 0.02 17.6
01/19/2019 21:00 -- -- 23.03 0.00 17.8
01/19/2019 20:00 -- -- 23.04 0.01 19.7
01/19/2019 19:00 -- -- 23.02 0.01 22.8
01/19/2019 18:00 -- -- 23.02 0.02 23.7
01/19/2019 17:00 -- -- 23.01 0.00 24.6
01/19/2019 16:00 -- -- 22.99 0.00 23.9
01/19/2019 15:00 -- -- 22.99 0.00 24.7
01/19/2019 14:00 -- -- 22.99 0.00 26.2
01/19/2019 13:00 -- -- 22.98 0.00 26.3
01/19/2019 12:00 -- -- 22.98 0.00 26.7
01/19/2019 11:00 -- -- 22.96 0.00 28.9
01/19/2019 10:00 -- -- 22.96 0.00 28.3
01/19/2019 09:00 -- -- 22.95 0.00 29.9
01/19/2019 08:00 -- -- 22.94 0.00 29.3
01/19/2019 07:00 -- -- 22.94 0.00 29.1
01/19/2019 06:00 -- -- 22.93 0.00 27.3
01/19/2019 05:00 -- -- 22.93 0.00 25.0
01/19/2019 04:00 -- -- 22.93 0.00 23.5
01/19/2019 03:00 -- -- 22.92 0.00 22.1
01/19/2019 02:00 -- -- 22.92 0.00 21.1
01/19/2019 01:00 -- -- 22.92 0.00 22.5
01/19/2019 00:00 -- -- 22.91 0.00 25.3
01/18/2019 23:00 -- -- 22.91 0.00 26.8
01/18/2019 22:00 -- -- 22.90 0.00 27.3
01/18/2019 21:00 -- -- 22.89 0.00 27.5
01/18/2019 20:00 -- -- 22.89 0.00 29.8
01/18/2019 19:00 -- -- 22.89 0.00 30.9
01/18/2019 18:00 -- -- 22.88 0.00 32.0
01/18/2019 17:00 -- -- 22.87 0.00 33.5
01/18/2019 16:00 -- -- 22.86 0.00 33.6
01/18/2019 15:00 -- -- 22.84 0.00 33.5
01/18/2019 14:00 -- -- 22.84 0.00 30.2
01/18/2019 13:00 -- -- 22.83 0.00 30.7
01/18/2019 12:00 -- -- 22.82 0.00 31.5
01/18/2019 11:00 -- -- 22.81 0.00 31.5
01/18/2019 10:00 -- -- 22.80 0.00 32.3
01/18/2019 09:00 -- -- 22.79 0.00 31.9
01/18/2019 08:00 -- -- 22.79 0.00 31.4
01/18/2019 07:00 -- -- 22.78 0.00 29.4
01/18/2019 06:00 -- -- 22.77 0.00 27.7
01/18/2019 05:00 -- -- 22.77 0.00 26.1
01/18/2019 04:00 -- -- 22.77 0.00 25.2
01/18/2019 03:00 -- -- 22.78 0.00 23.9
01/18/2019 02:00 -- -- 22.79 0.00 23.3
01/18/2019 01:00 -- -- 22.81 0.00 22.4
01/18/2019 00:00 -- -- 22.82 0.00 21.3
01/17/2019 23:00 -- -- 22.84 0.00 22.7
01/17/2019 22:00 -- -- 22.85 0.00 23.3
01/17/2019 21:00 -- -- 22.86 0.00 23.4
01/17/2019 20:00 -- -- 22.87 0.00 21.7
01/17/2019 19:00 -- -- 22.89 0.00 20.0
01/17/2019 18:00 -- -- 22.91 0.00 20.0
01/17/2019 17:00 -- -- 22.92 0.00 20.3
01/17/2019 16:00 -- -- 22.93 0.00 20.3
01/17/2019 15:00 -- -- 22.94 0.00 19.5
01/17/2019 14:00 -- -- 22.95 0.00 20.9
01/17/2019 13:00 -- -- 22.96 0.00 22.8
01/17/2019 12:00 -- -- 22.98 0.00 22.8
01/17/2019 11:00 -- -- 22.99 0.00 25.1
01/17/2019 10:00 -- -- 23.00 0.00 26.7
01/17/2019 09:00 -- -- 23.01 0.00 24.9
01/17/2019 08:00 -- -- 23.03 0.00 25.2
01/17/2019 07:00 -- -- 23.05 0.00 23.7
01/17/2019 06:00 -- -- 23.06 0.00 22.0
01/17/2019 05:00 -- -- 23.08 0.00 18.0
01/17/2019 04:00 -- -- 23.10 0.00 10.0
01/17/2019 03:00 -- -- 23.12 0.00 8.6
01/17/2019 02:00 -- -- 23.13 0.00 7.6
01/17/2019 01:00 -- -- 23.15 0.00 9.2
01/17/2019 00:00 -- -- 23.16 0.00 10.9
01/16/2019 23:00 -- -- 23.17 0.00 13.0
01/16/2019 22:00 -- -- 23.19 0.00 15.0
01/16/2019 21:00 -- -- 23.19 0.00 16.9
01/16/2019 20:00 -- -- 23.21 0.00 18.5
01/16/2019 19:00 -- -- 23.20 0.00 21.0
01/16/2019 18:00 -- -- 23.20 0.00 25.6
01/16/2019 17:00 -- -- 23.21 0.00 29.0
01/16/2019 16:00 -- -- 23.21 0.00 31.2
01/16/2019 15:00 -- -- 23.21 0.00 32.5
01/16/2019 14:00 -- -- 23.22 0.00 33.6
01/16/2019 13:00 -- -- 23.20 0.00 34.6
01/16/2019 12:00 -- -- 23.22 0.00 34.4
01/16/2019 11:00 -- -- 23.22 0.00 35.1
01/16/2019 10:00 -- -- 23.22 0.00 36.0
01/16/2019 09:00 -- -- 23.22 0.00 34.9
01/16/2019 08:00 -- -- 23.22 0.00 34.2
01/16/2019 07:00 -- -- 23.23 0.00 30.6
01/16/2019 06:00 -- -- 23.23 0.00 29.5
01/16/2019 05:00 -- -- 23.24 0.00 27.6
01/16/2019 04:00 -- -- 23.25 0.00 26.0
01/16/2019 03:00 -- -- 23.26 0.00 23.9
01/16/2019 02:00 -- -- 23.26 0.00 21.8
01/16/2019 01:00 -- -- 23.27 0.00 20.6
01/16/2019 00:00 -- -- 23.28 0.00 22.2
01/15/2019 23:00 -- -- 23.28 0.00 22.5
01/15/2019 22:00 -- -- 23.29 0.00 21.6
01/15/2019 21:00 -- -- 23.29 0.00 20.4
01/15/2019 20:00 -- -- 23.30 0.00 19.5
01/15/2019 19:00 -- -- 23.31 0.00 20.8
01/15/2019 18:00 -- -- 23.31 0.00 20.9
01/15/2019 17:00 -- -- 23.31 0.00 24.0
01/15/2019 16:00 -- -- 23.31 0.00 22.0
01/15/2019 15:00 -- -- 23.31 0.00 22.8
01/15/2019 14:00 -- -- 23.31 0.00 25.2
01/15/2019 13:00 -- -- 23.31 0.00 28.4
01/15/2019 12:00 -- -- 23.31 0.00 29.7
01/15/2019 11:00 -- -- 23.30 0.00 31.6
01/15/2019 10:00 -- -- 23.30 0.00 32.4
01/15/2019 09:00 -- -- 23.30 0.00 32.1
01/15/2019 08:00 -- -- 23.30 0.00 31.7
01/15/2019 07:00 -- -- 23.31 0.00 29.5
01/15/2019 06:00 -- -- 23.31 0.00 28.1
01/15/2019 05:00 -- -- 23.32 0.00 23.5
01/15/2019 04:00 -- -- 23.34 0.00 17.8
01/15/2019 03:00 -- -- 23.35 0.00 12.7
01/15/2019 02:00 -- -- 23.36 0.00 13.3
01/15/2019 01:00 -- -- 23.37 0.00 13.8
01/15/2019 00:00 -- -- 23.38 0.00 13.7
01/14/2019 23:00 -- -- 23.39 0.00 13.9
01/14/2019 22:00 -- -- 23.40 0.00 15.2
01/14/2019 21:00 -- -- 23.40 0.00 14.1
01/14/2019 20:00 -- -- 23.41 0.00 14.4
01/14/2019 19:00 -- -- 23.42 0.00 15.8
01/14/2019 18:00 -- -- 23.42 0.00 17.2
01/14/2019 17:00 -- -- 23.42 0.00 19.2
01/14/2019 16:00 -- -- 23.42 0.00 18.8
01/14/2019 15:00 -- -- 23.42 0.00 20.8
01/14/2019 14:00 -- -- 23.42 0.00 20.7
01/14/2019 13:00 -- -- 23.42 0.00 24.7
01/14/2019 12:00 -- -- 23.42 0.00 25.4
01/14/2019 11:00 -- -- 23.41 0.00 29.3
01/14/2019 10:00 -- -- 23.41 0.00 31.0
01/14/2019 09:00 -- -- 23.42 0.00 30.3
01/14/2019 08:00 -- -- 23.42 0.00 29.5
01/14/2019 07:00 -- -- 23.44 0.00 26.5
01/14/2019 06:00 -- -- 23.46 0.00 18.7
01/14/2019 05:00 -- -- 23.46 -- 15.6
01/14/2019 04:00 -- -- 23.48 0.00 7.3
01/14/2019 03:00 -- -- 23.50 0.00 5.3
01/14/2019 02:00 -- -- 23.52 0.00 3.7
01/14/2019 01:00 6.47 55.9 23.53 0.00 4.5
01/14/2019 00:00 6.47 55.9 23.54 0.00 4.7
01/13/2019 23:00 6.47 55.9 23.55 0.00 5.9
01/13/2019 22:00 6.47 55.9 23.56 0.00 6.1
01/13/2019 21:00 6.47 55.9 23.57 0.00 6.8
01/13/2019 20:00 6.47 55.9 23.58 0.00 7.7
01/13/2019 19:00 6.47 55.9 23.59 0.00 8.9
01/13/2019 18:00 6.47 55.9 23.59 0.00 9.3
01/13/2019 17:00 6.47 55.9 23.59 0.00 10.9
01/13/2019 16:00 6.46 54.8 23.59 0.00 12.5
01/13/2019 15:00 6.47 55.9 23.59 0.00 13.8
01/13/2019 14:00 6.47 55.9 23.59 0.00 15.7
01/13/2019 13:00 6.47 55.9 23.59 0.00 17.6
01/13/2019 12:00 6.47 55.9 23.59 0.00 19.5
01/13/2019 11:00 6.47 55.9 23.58 0.00 24.4
01/13/2019 10:00 6.47 55.9 23.57 0.00 26.5
01/13/2019 09:00 6.47 55.9 23.57 0.00 26.3
01/13/2019 08:00 6.47 55.9 23.57 0.00 24.1
01/13/2019 07:00 6.47 55.9 23.58 0.00 22.8
01/13/2019 06:00 6.47 55.9 23.59 0.00 21.4
01/13/2019 05:00 6.46 54.8 23.60 0.00 14.7
01/13/2019 04:00 6.47 55.9 23.60 0.00 8.1
01/13/2019 03:00 6.47 55.9 23.61 0.00 7.0
01/13/2019 02:00 6.47 55.9 23.62 0.00 8.0
01/13/2019 01:00 6.47 55.9 23.63 0.00 8.8
01/13/2019 00:00 6.47 55.9 23.63 0.00 9.3
01/12/2019 23:00 6.47 55.9 23.64 0.00 8.9
01/12/2019 22:00 6.47 55.9 23.64 0.00 9.5
01/12/2019 21:00 6.47 55.9 23.65 0.00 10.3
01/12/2019 20:00 6.47 55.9 23.65 0.00 10.6
01/12/2019 19:00 6.47 55.9 23.65 0.00 11.6
01/12/2019 18:00 6.47 55.9 23.65 0.00 10.9
01/12/2019 17:00 6.47 55.9 23.65 0.00 11.8
01/12/2019 16:00 6.47 55.9 23.64 0.00 11.3
01/12/2019 15:00 6.47 55.9 23.64 0.00 13.9
01/12/2019 14:00 6.47 55.9 23.62 0.00 16.4
01/12/2019 13:00 6.47 55.9 23.61 0.00 17.2
01/12/2019 12:00 6.47 55.9 23.60 0.00 19.9
01/12/2019 11:00 6.47 55.9 23.58 0.00 21.4
01/12/2019 10:00 6.47 55.9 23.57 0.00 23.4
01/12/2019 09:00 6.47 55.9 23.55 0.00 23.5
01/12/2019 08:00 6.47 55.9 23.53 0.00 24.1
01/12/2019 07:00 6.47 55.9 23.53 0.00 21.8
01/12/2019 06:00 6.47 55.9 23.53 0.00 19.2
01/12/2019 05:00 6.47 55.9 23.53 0.00 16.8
01/12/2019 04:00 6.47 55.9 23.53 0.00 6.2
01/12/2019 03:00 6.47 55.9 23.53 0.00 4.5
01/12/2019 02:00 6.47 55.9 23.53 0.00 3.8
01/12/2019 01:00 6.47 55.9 23.53 0.00 4.3
01/12/2019 00:00 6.47 55.9 23.53 0.00 4.8
01/11/2019 23:00 6.46 54.8 23.53 0.00 6.5
01/11/2019 22:00 6.46 54.8 23.53 0.00 4.9
01/11/2019 21:00 6.47 55.9 23.53 0.00 6.2
01/11/2019 20:00 6.46 54.8 23.52 0.00 6.5
01/11/2019 19:00 6.47 55.9 23.52 0.00 8.6
01/11/2019 18:00 6.47 55.9 23.51 0.00 8.8
01/11/2019 17:00 6.47 55.9 23.50 0.00 8.7
01/11/2019 16:00 6.47 55.9 23.48 0.00 10.5
01/11/2019 15:00 6.47 55.9 23.47 0.00 11.7
01/11/2019 14:00 6.47 55.9 23.46 0.00 13.2
01/11/2019 13:00 6.47 55.9 23.43 0.00 14.9
01/11/2019 12:00 6.47 55.9 23.42 0.00 16.7
01/11/2019 11:00 6.47 55.9 23.39 0.00 17.5
01/11/2019 10:00 6.47 55.9 23.36 0.00 18.7
01/11/2019 09:00 6.47 55.9 23.36 0.00 21.5
01/11/2019 08:00 6.47 55.9 23.32 0.00 22.9
01/11/2019 07:00 6.47 55.9 23.29 0.00 22.2
01/11/2019 06:00 6.62 74.7 23.28 0.00 22.2
01/11/2019 05:00 6.61 73.3 23.28 -- 18.5
01/11/2019 04:00 -- -- 23.29 0.00 17.0
01/11/2019 03:00 6.62 74.7 23.29 0.00 17.9
01/11/2019 02:00 6.62 74.7 23.30 0.00 18.1
01/11/2019 01:00 6.62 74.7 23.31 0.00 18.5
01/11/2019 00:00 6.62 74.7 23.29 0.00 18.9
01/10/2019 23:00 6.62 74.7 23.30 0.00 21.2
01/10/2019 22:00 6.61 73.3 23.29 0.00 21.9
01/10/2019 21:00 6.62 74.7 23.29 0.00 22.4
01/10/2019 20:00 6.61 73.3 23.28 0.00 20.8
01/10/2019 19:00 6.61 73.3 23.27 0.00 21.0
01/10/2019 18:00 6.62 74.7 23.27 0.00 19.6
01/10/2019 17:00 6.62 74.7 23.25 0.00 19.8
01/10/2019 16:00 6.62 74.7 23.24 0.00 20.3
01/10/2019 15:00 6.62 74.7 23.22 0.00 22.3
01/10/2019 14:00 6.62 74.7 23.19 0.00 24.5
01/10/2019 13:00 6.62 74.7 23.17 0.00 25.8
01/10/2019 12:00 6.62 74.7 23.14 0.00 26.9
01/10/2019 11:00 6.62 74.7 23.11 0.00 28.6
01/10/2019 10:00 6.62 74.7 23.10 0.00 30.1
01/10/2019 09:00 6.62 74.7 23.07 0.00 31.9
01/10/2019 08:00 6.62 74.7 23.05 0.00 32.0
01/10/2019 07:00 6.62 74.7 23.01 0.00 30.8
01/10/2019 06:00 6.62 74.7 22.98 0.00 29.6
01/10/2019 05:00 6.62 74.7 22.94 0.00 29.9
01/10/2019 04:00 -- -- -- -- --
01/10/2019 03:00 -- -- -- -- --
01/10/2019 02:00 -- -- -- -- --